Weather History for Tanger, Morocco

Change the Weather History Date:

Tuesday, November 13, 2012

  Actual Average Record
Temperature  
Mean Temperature 56 °F -  
Max Temperature 65 °F 63 °F 75 °F (2013)
Min Temperature 46 °F 49 °F 42 °F (2004)
Degree Days  
Heating Degree Days 10    
Growing Degree Days 6 (Base 50)    
Moisture  
Dew Point 50 °F    
Average Humidity 77    
Maximum Humidity 94    
Minimum Humidity 57    
Precipitation  
Precipitation 0.00 in 0.17 in - ()
Sea Level Pressure  
Sea Level Pressure 30.06 in    
Wind  
Wind Speed 5 mph ()    
Max Wind Speed 12 mph    
Max Gust Speed -    
Visibility 5.6 miles    
Events      
Averages and records for this station are not official NWS values.
T = Trace of Precipitation, MM = Missing Value Source: Averaged Metar Reports

Daily Weather History Graph

Daily Weather History Graph

Search for Another Location

Airport:

Trip Planner

Search our weather history database for the weather conditions in past years. The results will help you decide how hot, cold, wet, or windy it might be!

Date:

Astronomy

Nov. 13, 2012 Rise Set
Actual Time 6:57 AM WET 5:17 PM WET
Civil Twilight 6:30 AM WET 5:44 PM WET
Nautical Twilight 5:59 AM WET 6:15 PM WET
Astronomical Twilight 5:29 AM WET 6:45 PM WET
Moon 6:19 AM WET (11/13) 4:59 PM WET (11/13)
Length of Visible Light 11h 14m
Length of Day
10h 19m
Waning Crescent, 0% of the Moon is Illuminated
Nov 13
Waning Crescent
Nov 13
New
Nov 20
First Quarter
Nov 28
Full
Dec 6
Last Quarter

Hourly Weather History & Observations

Time (WET) Temp. Dew Point Humidity Pressure Visibility Wind Dir Wind Speed Gust Speed Precip Events Conditions
12:00 AM 50 °F 47 °F 85% 30.15 in 5 mi ESE 6.9 mph - -   Scattered Clouds
12:00 AM 50.0 °F 46.4 °F 87% 30.12 in 5.0 mi ESE 6.9 mph - N/A   Partly Cloudy
3:00 AM 49 °F 46 °F 84% 30.11 in - East 2.3 mph - -  
5:00 AM 46.4 °F 44.6 °F 93% 30.06 in 5.0 mi Calm Calm - N/A   Partly Cloudy
5:30 AM 46.4 °F 44.6 °F 93% 30.06 in 5.0 mi Calm Calm - N/A   Partly Cloudy
6:00 AM 48 °F 46 °F 88% 30.09 in 5 mi Calm Calm - -   Scattered Clouds
6:00 AM 48.2 °F 46.4 °F 93% 30.06 in 5.0 mi Calm Calm - N/A   Partly Cloudy
6:30 AM 48.2 °F 44.6 °F 87% 30.09 in 5.0 mi Variable 1.2 mph - N/A   Partly Cloudy
7:00 AM 46.4 °F 44.6 °F 93% 30.09 in 5.0 mi Calm Calm - N/A   Partly Cloudy
7:30 AM 48.2 °F 46.4 °F 93% 30.09 in 5.0 mi Variable 2.3 mph - N/A   Partly Cloudy
8:00 AM 51.8 °F 48.2 °F 88% 30.09 in 5.0 mi Variable 2.3 mph - N/A   Partly Cloudy
8:30 AM 55.4 °F 51.8 °F 88% 30.09 in 5.0 mi Variable 1.2 mph - N/A   Partly Cloudy
9:00 AM 57 °F 52 °F 79% 30.11 in 5 mi SSW 6.9 mph - -   Scattered Clouds
9:00 AM 57.2 °F 53.6 °F 88% 30.09 in 5.0 mi SSW 6.9 mph - N/A   Partly Cloudy
9:30 AM 59.0 °F 51.8 °F 77% 30.09 in 5.0 mi South 6.9 mph - N/A   Partly Cloudy
10:00 AM 60.8 °F 53.6 °F 77% 30.09 in 6.2 mi SSW 10.4 mph - N/A   Partly Cloudy
10:30 AM 62.6 °F 53.6 °F 72% 30.09 in 6.2 mi SSW 9.2 mph - N/A   Partly Cloudy
11:00 AM 62.6 °F 55.4 °F 77% 30.06 in 6.2 mi WSW 10.4 mph - N/A   Partly Cloudy
11:30 AM 64.4 °F 55.4 °F 73% 30.06 in 6.2 mi WSW 11.5 mph - N/A   Scattered Clouds
12:00 PM 64 °F 55 °F 65% 30.07 in 6 mi West 9.2 mph - -   Partly Cloudy
12:00 PM 64.4 °F 55.4 °F 73% 30.06 in 6.2 mi West 9.2 mph - N/A   Scattered Clouds
12:30 PM 64.4 °F 55.4 °F 73% 30.06 in 6.2 mi West 6.9 mph - N/A   Scattered Clouds
1:00 PM 64.4 °F 51.8 °F 64% 30.04 in 6.2 mi West 6.9 mph - N/A   Scattered Clouds
1:30 PM 64.4 °F 53.6 °F 68% 30.04 in 6.2 mi WNW 5.8 mph - N/A   Scattered Clouds
2:00 PM 64.4 °F 53.6 °F 68% 30.04 in 6.2 mi WNW 6.9 mph - N/A   Scattered Clouds
2:30 PM 64.4 °F 53.6 °F 68% 30.01 in 6.2 mi WNW 8.1 mph - N/A   Partly Cloudy
3:00 PM 65 °F 53 °F 57% 30.02 in 6 mi WNW 9.2 mph - -   Scattered Clouds
3:00 PM 64.4 °F 53.6 °F 68% 30.01 in 6.2 mi WNW 9.2 mph - N/A   Partly Cloudy
3:30 PM 64.4 °F 51.8 °F 64% 30.01 in 6.2 mi WNW 11.5 mph - N/A   Partly Cloudy
4:00 PM 64.4 °F 51.8 °F 64% 30.01 in 6.2 mi NW 11.5 mph - N/A   Partly Cloudy
4:30 PM 62.6 °F 50.0 °F 63% 30.01 in 6.2 mi NNW 9.2 mph - N/A   Partly Cloudy
5:00 PM 62.6 °F 50.0 °F 63% 30.01 in - NW 5.8 mph - N/A   Clear
5:30 PM 60.8 °F 50.0 °F 68% 30.01 in - WNW 9.2 mph - N/A   Clear
6:00 PM 59 °F 49 °F 61% 30.04 in 6 mi NW 4.6 mph - -  
6:00 PM 59.0 °F 50.0 °F 72% 30.01 in - NW 4.6 mph - N/A   Clear
6:30 PM 57.2 °F 48.2 °F 72% 30.04 in - WNW 3.5 mph - N/A   Clear
7:00 PM 59.0 °F 50.0 °F 72% 30.01 in - NW 9.2 mph - N/A   Clear
7:30 PM 59.0 °F 50.0 °F 72% 30.04 in - WNW 5.8 mph - N/A   Clear
8:00 PM 57.2 °F 48.2 °F 72% 30.04 in - Variable 2.3 mph - N/A   Clear
8:30 PM 55.4 °F 48.2 °F 77% 30.04 in - Calm Calm - N/A   Clear
9:00 PM 54 °F 48 °F 73% 30.05 in 6 mi ESE 2.3 mph - -  
9:00 PM 53.6 °F 48.2 °F 82% 30.04 in - Variable 2.3 mph - N/A   Clear
9:30 PM 51.8 °F 46.4 °F 82% 30.04 in - Variable 1.2 mph - N/A   Clear
10:00 PM 51.8 °F 48.2 °F 88% 30.04 in 5.0 mi Calm Calm - N/A   Partly Cloudy
10:30 PM - - N/A% 30.04 in 5.0 mi South 4.6 mph - N/A   Partly Cloudy
11:00 PM 50.0 °F 46.4 °F 87% 30.04 in 5.0 mi NE 3.5 mph - N/A   Partly Cloudy
11:30 PM 50.0 °F 48.2 °F 94% 30.04 in 5.0 mi NE 3.5 mph - N/A   Partly Cloudy